Content
SEND FEEDBACK

Daily
Averages
Monthly
Summary
United States of America

BAHAMA, NORTH CAROLINA


Home > North America > United States > North Carolina
Elevation: 33 feet     Latitude: 36 09N     Longitude: 078 50W

WEATHER
 
SELECT A DAY
Number of Records: 350,697;   Date Range: 10/4/00 - 11/22/14
 
SHARE

PRINT THIS DATA

[ ← Previous Day ]
WEATHER ALMANAC - FEBRUARY 13, 2013
[ Next Day → ]
[ °C ]   °F
Weather ElementAverageHighLow
Temperature43.7 °F50 °F (12:35 am)39.2 °F (11:15 pm)
Dewpoint41.6 °F44.6 °F (1:55 pm)32 °F (12:35 am)
Humidity93.4 %100 % (3:55 am)50 % (12:35 am)
Barometer29.78 in29.97 in (12:35 am)29.65 in (2:15 pm)
Wind Speed3 mph10.4 mph (9:35 pm)
Weather ElementAverage
Visibility7.3 mi
Wind DirectionSSE (147.2 °)

Weather ElementTotal
Precipitation0.28 in
Heating Degree Days20.4 (Base 65)
Averaged from 71 records on February 13, 2013
WEATHER CONDITIONS BREAKOUT
WIND DIRECTION BREAKOUT
WEATHER BY HOUR - FEBRUARY 13, 2013
[ °C ]   °F
Local TimeTemperatureDewpointHumidityBarometerVisibilityWind DirectionWind SpeedGust SpeedPrecipitationEventsConditions
12:35 AM50.0 °F32.0 °F50 %29.97 in10.0 miWNW (300°)6.9 mphLight Drizzle
12:55 AM50.0 °F32.0 °F50 %29.92 in10.0 miNNW (330°)4.6 mphOvercast
1:15 AM48.2 °F35.6 °F62 %29.93 in10.0 miNorth (350°)6.9 mphMostly Cloudy
1:35 AM46.4 °F37.4 °F71 %29.91 in10.0 miCalmOvercast
1:55 AM46.4 °F37.4 °F71 %29.91 in10.0 miNNW (340°)4.6 mphOvercast
2:15 AM46.4 °F37.4 °F71 %29.88 in10.0 miCalmOvercast
2:35 AM46.4 °F37.4 °F71 %29.90 in10.0 miNW (320°)4.6 mphOvercast
2:55 AM46.4 °F37.4 °F71 %29.90 in10.0 miCalmRainLight Rain
3:15 AM44.6 °F39.2 °F81 %29.90 in10.0 miSSW (210°)3.5 mphRainLight Rain
3:35 AM44.6 °F41.0 °F87 %29.86 in10.0 miCalmRainLight Rain
3:55 AM42.8 °F42.8 °F100 %29.87 in10.0 miCalm0.01 inRainLight Rain
4:15 AM42.8 °F42.8 °F100 %29.84 in10.0 miCalmRainRain
4:35 AM42.8 °F42.8 °F100 %29.82 in10.0 miCalmRainLight Rain
4:55 AM42.8 °F42.8 °F100 %29.83 in10.0 miCalmOvercast
5:15 AM42.8 °F42.8 °F100 %29.84 in7.0 miCalm0.02 inRainLight Rain
5:35 AM42.8 °F42.8 °F100 %29.84 in10.0 miCalm0.03 inRainLight Rain
5:55 AM42.8 °F42.8 °F100 %29.84 in10.0 miCalm0.05 inRainLight Rain
6:15 AM42.8 °F42.8 °F100 %29.85 in7.0 miCalm0.02 inRainLight Rain
6:35 AM42.8 °F42.8 °F100 %29.86 in7.0 miSSW (210°)3.5 mph0.04 inRainLight Rain
6:55 AM42.8 °F42.8 °F100 %29.85 in10.0 miSSW (200°)4.6 mph0.05 inRainRain
7:15 AM42.8 °F42.8 °F100 %29.84 in10.0 miSouth (190°)4.6 mph0.01 inRainRain
7:35 AM41.0 °F41.0 °F100 %29.84 in10.0 miCalm0.02 inDrizzle
7:55 AM41.0 °F41.0 °F100 %29.85 in10.0 miCalm0.02 inDrizzle
8:15 AM41.0 °F41.0 °F100 %29.83 in7.0 miCalmDrizzle
8:35 AM42.8 °F42.8 °F100 %29.86 in10.0 miSW (220°)3.5 mphOvercast
8:55 AM42.8 °F42.8 °F100 %29.86 in7.0 miCalm0.01 inRainRain
9:15 AM42.8 °F42.8 °F100 %29.85 in5.0 miNorthDrizzle
9:35 AM42.8 °F42.8 °F100 %29.83 in2.5 miCalmDrizzle
9:55 AM42.8 °F42.8 °F100 %29.81 in2.5 miCalmLight Drizzle
10:15 AM42.8 °F42.8 °F100 %29.79 in4.0 miESE (110°)4.6 mphOvercast
10:35 AM42.8 °F42.8 °F100 %29.80 in10.0 miESE (110°)3.5 mphOvercast
10:55 AM42.8 °F42.8 °F100 %29.79 in4.0 miSE (140°)3.5 mphDrizzle
11:15 AM42.8 °F42.8 °F100 %29.79 in3.0 miCalmDrizzle
11:35 AM42.8 °F42.8 °F100 %29.77 in5.0 miCalmOvercast
11:55 AM42.8 °F42.8 °F100 %29.75 in7.0 miCalmLight Drizzle
12:15 PM42.8 °F42.8 °F100 %29.74 in3.0 miCalmOvercast
12:35 PM42.8 °F42.8 °F100 %29.71 in4.0 miESE (120°)4.6 mphOvercast
12:55 PM42.8 °F42.8 °F100 %29.70 in2.5 miCalmOvercast
1:15 PM42.8 °F42.8 °F100 %29.69 in1.8 miSSE (150°)3.5 mphDrizzle
1:35 PM42.8 °F42.8 °F100 %29.69 in1.5 miCalmHeavy Drizzle
1:55 PM44.6 °F44.6 °F100 %29.66 in2.0 miCalmLight Drizzle
2:15 PM44.6 °F44.6 °F100 %29.65 in2.0 miCalmLight Drizzle
2:35 PM44.6 °F44.6 °F100 %29.65 in1.8 miCalmOvercast
2:55 PM44.6 °F44.6 °F100 %29.67 in1.5 miSW (220°)3.5 mphOvercast
3:15 PM44.6 °F44.6 °F100 %29.66 in2.0 miCalmDrizzle
3:35 PM44.6 °F44.6 °F100 %29.65 in4.0 miSouth (190°)3.5 mphOvercast
3:55 PM44.6 °F44.6 °F100 %29.65 in10.0 miSW (220°)3.5 mphOvercast
4:15 PM44.6 °F44.6 °F100 %29.66 in7.0 miSW (220°)5.8 mphOvercast
4:35 PM44.6 °F44.6 °F100 %29.65 in3.0 miWSW (240°)4.6 mphOvercast
4:55 PM44.6 °F44.6 °F100 %29.66 in2.5 miWest (260°)3.5 mphOvercast
5:15 PM44.6 °F44.6 °F100 %29.68 in2.0 miWSW (250°)4.6 mphDrizzle
5:35 PM44.6 °F44.6 °F100 %29.67 in5.0 miWest (270°)3.5 mphOvercast
5:55 PM44.6 °F44.6 °F100 %29.67 in4.0 miWest (280°)3.5 mphOvercast
6:15 PM44.6 °F44.6 °F100 %29.68 in5.0 miWest (260°)3.5 mphOvercast
6:35 PM44.6 °F44.6 °F100 %29.69 in4.0 miWest (260°)3.5 mphOvercast
6:55 PM44.6 °F44.6 °F100 %29.71 in10.0 miWest (260°)4.6 mphOvercast
7:15 PM44.6 °F44.6 °F100 %29.71 in10.0 miWSW (250°)3.5 mphOvercast
7:35 PM44.6 °F44.6 °F100 %29.71 in10.0 miWest (260°)5.8 mphOvercast
7:55 PM44.6 °F44.6 °F100 %29.72 in10.0 miWSW (240°)4.6 mphOvercast
8:15 PM44.6 °F44.6 °F100 %29.72 in10.0 miWSW (250°)5.8 mphOvercast
8:35 PM44.6 °F44.6 °F100 %29.73 in10.0 miWSW (250°)6.9 mphOvercast
8:55 PM44.6 °F44.6 °F100 %29.74 in10.0 miWest (260°)8.1 mphMostly Cloudy
9:15 PM44.6 °F44.6 °F100 %29.75 in10.0 miWNW (290°)9.2 mphOvercast
9:35 PM44.6 °F41.0 °F87 %29.77 in10.0 miWNW (290°)10.4 mphScattered Clouds
9:55 PM42.8 °F37.4 °F81 %29.78 in10.0 miWNW (300°)6.9 mphClear
10:15 PM42.8 °F35.6 °F76 %29.80 in10.0 miWNW (300°)4.6 mphClear
10:35 PM41.0 °F35.6 °F81 %29.81 in10.0 miWNW (300°)4.6 mphClear
10:55 PM41.0 °F35.6 °F81 %29.81 in10.0 miNW (320°)6.9 mphClear
11:15 PM39.2 °F33.8 °F81 %29.82 in10.0 miNW (310°)4.6 mphClear
11:35 PM39.2 °F33.8 °F81 %29.83 in10.0 miWNW (300°)5.8 mphClear
11:55 PM39.2 °F32.0 °F75 %29.84 in10.0 miWNW (300°)5.8 mphClear
Hourly data recorded from KTDF, located miles away from Bahama, North Carolina







STORIES FROM OUR PARTNERS